This is the latest recevied weather packets stored in our database for station/object DG4MJS-10. If no packets are shown the sender has not sent any weather packets the latest 10 day(s).
| Time | Temp. | Humidity | Pressure | Rain* | Wind** | Luminosity | Snow |
|---|---|---|---|---|---|---|---|
| 1788128977 | 20.56° C | 72% | 1015.6 hPa | - | - | - | - |
| 1788128079 | 20.56° C | 71% | 1015.6 hPa | - | - | - | - |
| 1788127179 | 20.56° C | 71% | 1015.8 hPa | - | - | - | - |
| 1788126279 | 20.56° C | 71% | 1015.7 hPa | - | - | - | - |
| 1788125379 | 20.56° C | 71% | 1015.6 hPa | - | - | - | - |
| 1788124479 | 20.56° C | 70% | 1015.8 hPa | - | - | - | - |
| 1788123579 | 21.11° C | 69% | 1015.8 hPa | - | - | - | - |
| 1788122679 | 21.11° C | 70% | 1015.8 hPa | - | - | - | - |
| 1788121779 | 21.11° C | 69% | 1015.9 hPa | - | - | - | - |
| 1788120879 | 21.11° C | 68% | 1015.8 hPa | - | - | - | - |
| 1788119978 | 21.11° C | 68% | 1015.9 hPa | - | - | - | - |
| 1788119078 | 21.67° C | 68% | 1015.8 hPa | - | - | - | - |
| 1788118178 | 21.67° C | 67% | 1015.9 hPa | - | - | - | - |
| 1788117278 | 21.67° C | 67% | 1015.9 hPa | - | - | - | - |
| 1788116378 | 22.22° C | 66% | 1015.7 hPa | - | - | - | - |
| 1788115478 | 22.22° C | 66% | 1015.6 hPa | - | - | - | - |
| 1788114578 | 22.78° C | 62% | 1015.6 hPa | - | - | - | - |
| 1788113678 | 22.78° C | 61% | 1015.4 hPa | - | - | - | - |
| 1788112778 | 22.78° C | 62% | 1015.3 hPa | - | - | - | - |
| 1788111878 | 22.78° C | 65% | 1015.2 hPa | - | - | - | - |
| 1788110978 | 22.78° C | 69% | 1015.1 hPa | - | - | - | - |
| 1788110078 | 22.78° C | 66% | 1015 hPa | - | - | - | - |
| 1788109177 | 23.33° C | 59% | 1014.9 hPa | - | - | - | - |
| 1788108277 | 23.33° C | 57% | 1014.9 hPa | - | - | - | - |
| 1788107377 | 23.89° C | 53% | 1015 hPa | - | - | - | - |
* Rain since midnight (hover to see other rain measurements)
** Current wind speed in m/s (hover to see current wind gust speed)